COSMOS 2184

Satellite information

Favourite Embed

Satellite Type and Status

PAYLOADIN ORBIT

Key statistics

Satellite COSMOS 2184 at a glance.

Uptime

12241

Days in orbit

Revolutions

≈ 13.7

Per day

Orbit

LEO

Low Earth Orbit

Inclination

82.9

Latest

Satellite identification and parameters

Extended collection of information and parameters for COSMOS 2184.

Object identification

Identified? True

Debris? False

Object name: COSMOS 2184

International designator: 1992-020A

Object number (NORAD): 21937

Object ID (CCSDS): 21937

Country: COMMONWEALTH OF INDEPENDENT STATES (CIS)

Current information (Y/N): Y

RCS size: LARGE

Orbital parameters

Period: 104.852 minutes

Inclination: 82.9285 deg

SMA: 7365.656 km

Apoapsis: 1013.102 km

Periapsis: 961.941 km

RAAN: 292.9091 deg

Eccentricy: 0.00347299

Argument of periapsis: 100.7568 deg

Mean anomaly: 320.7919 deg

Mean motion: 13.73363751 rev/day

Mean motion (dot): 0.00000077 rev/day2

B* drag term: 0.000065980973 1/REarth

Two-line elements (TLE)

Creation date: Oct. 20, 2025, 2:10 a.m.

Reference frame: TEME

Reference center: EARTH

Epoch: Oct. 19, 2025, 11:12 p.m. UTC

TLE line 0: 0 COSMOS 2184

TLE line 1: 1 21937U 92020A 25292.96699019 .00000077 00000-0 65981-4 0 9991

TLE line 2: 2 21937 82.9285 292.9091 0034730 100.7568 320.7919 13.73363751679365

Live tracking on map

Real-time ground track for satellite COSMOS 2184.

In-orbit conjunctions

There are no conjunctions computed for COSMOS 2184, at the moment. Check back to stay up to date, as we update our databases every day.

Go to all conjunctions

Associated space launch

Navigation satellite providing location information for the Tsiklon-B navigation system

COSMOS 2184 was lifted into orbit during the mission ‘Kosmos-3M | Parus 76’, on board a Kosmos-3M space rocket.

The launch took place on April 15, 1992, 7:17 a.m. from 132/1 (132L).

For more information about the launch, click the button.

Launch to space Kosmos-3M | Parus 76
Kosmos-3M | Parus 76

Agency: N/A

Status: Launch Successful

Launch date: April 15, 1992, 7:17 a.m. UTC

Rocket: Kosmos-3M

Launch pad: 132/1 (132L)

Location: Plesetsk Cosmodrome, Russian Federation

...

Latest news about this satellite

There are no fresh news available about this satellite. Check back as we update our databases every day.


Newsletter sign-up

Weekly statistics, charts and insights to help you stay on top of the space industry.